GUNSMOKE-J 4 (48878 NORAD) Tracking and Keplerian Element Data

This shows tracking and keplerian element data for the satellite.

Feedback or suggestion? Click here.




ElementValue
Catalog48878
NameGUNSMOKE-J 4
Epoch Orbit1616
Epoch Day288.09292411
Epoch Year2021
RAAN186.7776
Inclination60.6925
Eccentricity0.0035768
Argument of Perigee10.3987
Mean Anonmoly130.8884
Mean Motion15.18748484
Decay Rate4.56E-05
L11 48878U 21058H 21288.09292411 .00004560 00000-0 22696-3 0 9993
L22 48878 60.6925 186.7776 0035768 10.3987 130.8884 15.18748484 16160

Live tracking and technical data element details for GUNSMOKE-J 4 (NORAD 48878). GUNSMOKE-J 4 can be tracked NOW for your location showing map with azimuth and elevation plus other details from your city location.

Track the satellite on the map from your city or location and see movement details for azimuth, elevation, latitude, longitude, range, height, and movement on the map or in text.







IsCatalogInMostPopularTable: catalog: 48878, numindb: 21
Update: records affected: 1



GetName: 48878 GUNSMOKE-J 4

Hit Count: updated at: Tue, 19 Oct 2021 07:42:26 GMT